Tracking 19219 objects as of 20-Jul-2018
HD Live streaming from Space Station
objects crossing your sky now

FENGYUN 1C DEB

Track FENGYUN 1C DEB now!
10-day predictions


NORAD ID: 35089
Int'l Code: 1999-025DJR
Perigee: 831.9 km
Apogee: 873.5 km
Inclination: 98.8 °
Period: 101.8 minutes
Semi major axis: 7223 km
RCS: 0.0081 m2 (small)
Launch date: May 10, 1999
Source: People's Republic of China (PRC)
Launch site: Taiyaun Space Center, China (TSC)

Note: This is SATELLITE DEBRIS
aabbcc
Your satellite tracking list
Your tracking list is empty




NASA's NSSDC Master Catalog

Two Line Element Set (TLE):
1 35089U 99025DJR 18200.09028224 +.00000613 +00000-0 +34415-3 0  9998
2 35089 098.7927 248.8768 0028777 245.4743 114.3430 14.14050905226243
Source of the keplerian elements: AFSPC